EW6103 Weather Reports


Display with metric or nautical units.
time (UTC)temp
F
wind
direction
speed
MPH
gust
MPH
rain 1hr
in
rain 24hr
in
rain mn
in
humidity
%
barometer
mb
20260509095008 58 225 1.0 2.0 0.00 0.00 0.00 69 1019.1
20260509094010 58 225 1.0 2.0 0.00 0.00 0.00 69 1019.1
20260509092008 58 225 1.0 2.0 0.00 0.00 0.00 69 1019.1
20260509090009 58 225 1.0 2.0 0.00 0.00 0.00 69 1019.1
20260509085008 58 225 1.0 2.0 0.00 0.00 0.00 69 1019.1
20260509084008 58 225 1.0 2.0 0.00 0.00 0.00 69 1019.1
20260509083010 58 225 1.0 2.0 0.00 0.00 0.00 69 1019.1
20260509082009 58 225 1.0 2.0 0.00 0.00 0.00 69 1019.1
20260509081010 58 225 1.0 2.0 0.00 0.00 0.00 69 1019.1
20260509080012 58 45 2.0 5.0 0.00 0.00 0.00 68 1019.3
20260509075008 57 270 1.0 3.0 0.00 0.00 0.00 70 1019.4
20260509074008 56 180 1.0 3.0 0.00 0.00 0.00 70 1019.4
20260509071009 55 180 1.0 3.0 0.00 0.00 0.00 76 1019.4
20260509070013 53 0 2.0 4.0 0.00 0.00 0.00 77 1019.7
20260509065009 53 90 1.0 2.0 0.00 0.00 0.00 78 1019.6
20260509063009 52 0 1.0 3.0 0.00 0.00 0.00 80 1019.7
20260509062008 53 0 2.0 4.0 0.00 0.00 0.00 79 1019.5
20260509061012 52 180 1.0 2.0 0.00 0.00 0.00 79 1019.4
20260509054007 51 0 2.0 4.0 0.00 0.00 0.00 83 1019.3
20260509052009 48 0 1.0 3.0 0.00 0.00 0.00 91 1019.4
20260509050011 44 180 0.0 2.0 0.00 0.00 0.00 96 1019.5
20260509045008 43 45 0.0 1.0 0.00 0.00 0.00 97 1019.5
20260509044009 41 45 0.0 1.0 0.00 0.00 0.00 97 1019.6
20260509043009 40 45 0.0 1.0 0.00 0.00 0.00 97 1019.6
20260509042006 40 90 1.0 2.0 0.00 0.00 0.00 97 1019.7
20260509041008 39 45 0.0 1.0 0.00 0.00 0.00 97 1019.6
20260509040011 38 45 0.0 0.0 0.00 0.00 0.00 97 1019.8
20260509035006 38 45 0.0 0.0 0.00 0.00 0.00 96 1019.8
20260509034008 39 45 1.0 2.0 0.00 0.00 0.00 96 1019.7
20260509033010 38 90 1.0 2.0 0.00 0.00 0.00 96 1019.8
20260509032007 38 0 0.0 1.0 0.00 0.00 0.00 96 1019.8
20260509031007 38 180 1.0 2.0 0.00 0.00 0.00 96 1019.7
20260509025007 39 45 0.0 1.0 0.00 0.00 0.00 95 1019.6
20260509024008 39 45 0.0 1.0 0.00 0.00 0.00 95 1019.6
20260509023010 39 45 0.0 0.0 0.00 0.00 0.00 95 1019.6
20260509022008 40 45 0.0 1.0 0.00 0.00 0.00 95 1019.6
20260509021008 40 0 0.0 2.0 0.00 0.00 0.00 95 1019.6
20260509020011 41 0 0.0 1.0 0.00 0.00 0.00 95 1019.5
20260509014008 42 180 1.0 3.0 0.00 0.00 0.00 95 1019.4
20260509013010 42 270 1.0 3.0 0.00 0.00 0.00 94 1019.4
20260509012009 44 90 0.0 2.0 0.00 0.00 0.00 94 1019.1
20260509011007 44 0 0.0 2.0 0.00 0.00 0.00 94 1019.2
20260509010011 45 0 1.0 2.0 0.00 0.00 0.00 94 1019.1
20260509005009 45 90 0.0 1.0 0.00 0.00 0.00 94 1019.4
20260509004008 45 90 1.0 2.0 0.00 0.00 0.00 94 1019.4
20260509003009 44 135 0.0 1.0 0.00 0.00 0.00 94 1019.5
20260509002006 44 90 0.0 0.0 0.00 0.00 0.00 94 1019.6
20260509001008 44 90 0.0 0.0 0.00 0.00 0.00 94 1019.6
20260508234009 44 225 0.0 2.0 0.00 0.00 0.00 94 1019.8
20260508233009 44 45 0.0 1.0 0.00 0.00 0.00 93 1019.6
20260508232009 45 180 1.0 2.0 0.00 0.00 0.00 92 1019.7
20260508231008 45 45 0.0 2.0 0.00 0.00 0.00 92 1019.7
20260508230014 45 225 0.0 2.0 0.00 0.00 0.00 92 1019.7
20260508225009 46 135 0.0 1.0 0.00 0.00 0.00 91 1019.6
20260508224009 47 0 0.0 2.0 0.00 0.00 0.00 91 1019.5
20260508223010 47 45 1.0 3.0 0.00 0.00 0.00 91 1019.5
20260508222008 46 45 1.0 2.0 0.00 0.00 0.00 93 1019.5
20260508221006 46 45 0.0 2.0 0.00 0.00 0.00 94 1019.4
20260508220012 45 45 0.0 1.0 0.00 0.00 0.00 94 1019.6
20260508215007 44 45 0.0 1.0 0.00 0.00 0.00 94 1019.5
20260508214013 44 45 0.0 2.0 0.00 0.00 0.00 94 1019.6
20260508212006 43 180 0.0 1.0 0.00 0.00 0.00 93 1019.5
20260508211006 43 180 0.0 2.0 0.00 0.00 0.00 93 1019.6
20260508205009 43 45 0.0 1.0 0.00 0.00 0.00 92 1019.4
20260508204005 43 180 0.0 1.0 0.00 0.00 0.00 92 1019.3
20260508201011 45 45 0.0 1.0 0.00 0.00 0.00 89 1018.9
20260508200009 46 180 0.0 2.0 0.00 0.00 0.00 89 1018.9
20260508195006 47 180 0.0 1.0 0.00 0.00 0.00 88 1019.0
20260508194009 47 180 0.0 1.0 0.00 0.00 0.00 87 1018.7
20260508193007 48 45 0.0 1.0 0.00 0.00 0.00 85 1018.5
20260508192005 50 45 0.0 1.0 0.00 0.00 0.00 83 1018.4
20260508191008 51 0 1.0 4.0 0.00 0.00 0.00 81 1018.2
20260508190011 51 45 2.0 4.0 0.00 0.00 0.00 80 1017.9
20260508185008 52 45 3.0 6.0 0.00 0.00 0.00 78 1017.8
20260508184007 53 180 3.0 5.0 0.00 0.00 0.00 78 1017.7
20260508181006 54 45 2.0 4.0 0.00 0.00 0.00 75 1017.3
20260508180013 55 90 2.0 4.0 0.00 0.00 0.00 73 1017.1
20260508175009 56 0 3.0 5.0 0.00 0.00 0.00 71 1017.1
20260508174008 56 0 2.0 6.0 0.00 0.00 0.00 71 1017.2
20260508173011 56 45 4.0 6.0 0.00 0.00 0.00 70 1017.1
20260508171008 57 0 3.0 7.0 0.00 0.00 0.00 69 1016.9
20260508165006 60 180 4.0 6.0 0.00 0.00 0.00 65 1016.5
20260508164008 61 0 3.0 5.0 0.00 0.00 0.00 64 1016.6
20260508163008 61 180 2.0 5.0 0.00 0.00 0.00 64 1016.5
20260508162008 61 180 1.0 4.0 0.00 0.00 0.00 62 1016.6
20260508161008 61 180 3.0 6.0 0.00 0.00 0.00 66 1016.7
20260508160013 60 180 3.0 6.0 0.00 0.00 0.00 66 1016.6
20260508155009 62 45 3.0 6.0 0.00 0.00 0.00 64 1016.6
20260508154008 62 180 3.0 4.0 0.00 0.00 0.00 63 1016.6
20260508153009 62 45 4.0 6.0 0.00 0.00 0.00 66 1016.8
20260508152009 60 270 4.0 7.0 0.00 0.00 0.00 70 1016.9
20260508150015 62 180 5.0 8.0 0.00 0.00 0.00 67 1016.8
20260508145006 61 270 4.0 8.0 0.00 0.00 0.00 71 1016.9
20260508144006 60 180 5.0 9.0 0.00 0.00 0.00 69 1016.9
20260508142010 59 180 5.0 8.0 0.00 0.00 0.00 72 1017.2
20260508141006 56 180 5.0 7.0 0.00 0.00 0.00 77 1017.3
20260508140012 56 180 4.0 6.0 0.00 0.00 0.00 79 1017.3
20260508135008 56 270 4.0 6.0 0.00 0.00 0.00 77 1017.4
20260508134008 58 225 3.0 5.0 0.00 0.00 0.00 75 1017.2
20260508133010 56 270 3.0 4.0 0.00 0.00 0.00 75 1017.3
20260508132008 56 180 2.0 4.0 0.00 0.00 0.00 77 1017.6
20260508130015 55 180 1.0 3.0 0.00 0.00 0.00 75 1017.4
20260508125008 56 90 1.0 3.0 0.00 0.00 0.00 76 1017.6
20260508124006 56 90 1.0 3.0 0.00 0.00 0.00 76 1017.6
20260508123012 56 90 1.0 4.0 0.00 0.00 0.00 77 1017.5
20260508122008 55 180 1.0 3.0 0.00 0.00 0.00 76 1017.6
20260508121009 55 180 2.0 4.0 0.00 0.00 0.00 77 1017.5
20260508120013 55 180 1.0 3.0 0.00 0.00 0.00 80 1017.5
20260508115008 55 270 1.0 2.0 0.00 0.00 0.00 78 1017.5
20260508113010 54 0 1.0 4.0 0.00 0.00 0.00 80 1017.5
20260508112011 54 180 0.0 3.0 0.00 0.00 0.00 81 1017.6
20260508110012 53 0 2.0 4.0 0.00 0.00 0.00 83 1017.6
20260508103010 52 0 2.0 4.0 0.00 0.00 0.00 85 1017.8
20260508102009 52 180 2.0 3.0 0.00 0.00 0.00 87 1017.7
20260508101006 51 0 1.0 3.0 0.00 0.00 0.00 87 1017.9
20260508100015 51 180 2.0 4.0 0.00 0.00 0.00 87 1017.9